Location: *
(31.2983°S, 151.4094°E)
Time: 19:56:34
(UTC+00:00)

Cosmos 1470 Rocket - Pass Details

Date: 25 August 2019
Orbit: 603 x 634 km, 82.5° (Epoch: 19 October)

Event Time Altitude Azimuth Distance (km) Brightness Sun altitude
Rises 19:45:34 0° 360° (N) 2,848 7.1 -7.8°
Reaches altitude 10° 19:47:46 10° 2° (N) 1,951 6.3 -7.3°
Maximum altitude 19:52:03 72° 86° (E) 643 3.9 -6.4°
Drops below altitude 10° 19:56:24 10° 169° (S) 1,976 6.2 -5.5°
Sets 19:58:39 0° 171° (S) 2,889 7.0 -5.0°
